Soldotna, AK

5:42 AM AKDT on May 30, 2017 (GMT -0800)
Soldotna

Weather History for PASX - March, 2013

Change the Weather History Date:

Monday, March 11, 2013

  Actual Average Record
Temperature  
Mean Temperature 29 °F -  
Max Temperature 37 °F 33 °F 47 °F (1984)
Min Temperature 21 °F 13 °F -25 °F (1972)
Degree Days  
Heating Degree Days 36    
Moisture  
Dew Point 21 °F    
Average Humidity 72    
Maximum Humidity 100    
Minimum Humidity 41    
Precipitation  
Precipitation 0.00 in - - ()
Sea Level Pressure  
Sea Level Pressure 30.27 in    
Wind  
Wind Speed 4 mph (NNW)    
Max Wind Speed 12 mph    
Max Gust Speed 20 mph    
Visibility 8 miles    
Events      
Averages and records for this station are not official NWS values.
T = Trace of Precipitation, MM = Missing Value Source: NWS Daily Summary

Daily Weather History Graph

Daily Weather History Graph

Search for Another Location

Airport or City:

Trip Planner

Search our weather history database for the weather conditions in past years. The results will help you decide how hot, cold, wet, or windy it might be!

Date:

Astronomy

Mar. 11, 2013 Rise Set
Actual Time 8:31 AM AKDT 7:57 PM AKDT
Civil Twilight 7:49 AM AKDT 8:39 PM AKDT
Nautical Twilight 7:00 AM AKDT 9:29 PM AKDT
Astronomical Twilight 6:08 AM AKDT 10:21 PM AKDT
Moon 8:01 AM AKDT (3/11) 8:38 PM AKDT (3/11)
Length of Visible Light 12h 49m
Length of Day
11h 25m
New Moon, 0% of the Moon is Illuminated
Mar 11
New Moon
Mar 19
First Quarter
Mar 27
Full
Apr 2
Last Quarter
Apr 10
New

Hourly Weather History & Observations

Time (AKDT) Temp. Windchill Dew Point Humidity Pressure Visibility Wind Dir Wind Speed Gust Speed Precip Events Conditions
12:16 AM 28.4 °F 22.2 °F 26.6 °F 93% 30.22 in 10.0 mi West 5.8 mph - N/A   Overcast
12:36 AM 28.4 °F 23.3 °F 26.6 °F 93% 30.22 in 9.0 mi West 4.6 mph - N/A   Overcast
12:56 AM 28.4 °F 23.3 °F 26.6 °F 93% 30.23 in 9.0 mi West 4.6 mph - N/A   Overcast
1:16 AM 28.4 °F 21.2 °F 26.6 °F 93% 30.24 in 8.0 mi West 6.9 mph - N/A   Overcast
1:36 AM 28.4 °F 22.2 °F 26.6 °F 93% 30.24 in 7.0 mi West 5.8 mph - N/A   Overcast
1:56 AM 28.4 °F 23.3 °F 26.6 °F 93% 30.24 in 8.0 mi WNW 4.6 mph - N/A   Overcast
2:16 AM 28.4 °F 23.3 °F 26.6 °F 93% 30.24 in 4.0 mi West 4.6 mph - N/A   Overcast
2:36 AM 28.4 °F 23.3 °F 26.6 °F 93% 30.25 in 10.0 mi West 4.6 mph - N/A   Overcast
2:56 AM 28.4 °F 22.2 °F 26.6 °F 93% 30.25 in 10.0 mi West 5.8 mph - N/A   Overcast
3:16 AM 28.4 °F 23.3 °F 26.6 °F 93% 30.26 in 8.0 mi West 4.6 mph - N/A   Overcast
3:36 AM 28.4 °F 23.3 °F 26.6 °F 93% 30.26 in 10.0 mi West 4.6 mph - N/A   Overcast
3:56 AM 28.4 °F 24.6 °F 26.6 °F 93% 30.26 in 10.0 mi West 3.5 mph - N/A   Overcast
4:36 AM 28.4 °F 24.6 °F 26.6 °F 93% 30.26 in 10.0 mi WSW 3.5 mph - N/A   Overcast
4:56 AM 28.4 °F 24.6 °F 26.6 °F 93% 30.26 in 10.0 mi West 3.5 mph - N/A   Overcast
5:16 AM 28.4 °F - 26.6 °F 93% 30.26 in 8.0 mi Calm Calm - N/A   Overcast
5:36 AM 28.4 °F - 26.6 °F 93% 30.26 in 7.0 mi Calm Calm - N/A   Overcast
5:56 AM 28.4 °F 24.6 °F 26.6 °F 93% 30.26 in 10.0 mi WSW 3.5 mph - N/A   Overcast
6:16 AM 28.4 °F - 24.8 °F 86% 30.26 in 10.0 mi Calm Calm - N/A   Overcast
6:36 AM 28.4 °F - 24.8 °F 86% 30.26 in 10.0 mi Calm Calm - N/A   Overcast
6:56 AM 26.6 °F - 24.8 °F 93% 30.27 in 10.0 mi Calm Calm - N/A   Overcast
7:16 AM 26.6 °F 22.6 °F 24.8 °F 93% 30.27 in 2.0 mi West 3.5 mph - N/A   Overcast
7:36 AM 24.8 °F - 23.0 °F 93% 30.28 in 0.8 mi Calm Calm - N/A   Overcast
7:56 AM 26.6 °F - 23.0 °F 86% 30.28 in 0.5 mi Calm Calm - N/A   Overcast
8:16 AM 24.8 °F - 21.2 °F 86% 30.28 in 0.2 mi Calm Calm - N/A   Overcast
8:36 AM 21.2 °F - 17.6 °F 86% 30.28 in 0.5 mi Calm Calm - N/A   Overcast
8:56 AM 23.0 °F - 21.2 °F 93% 30.28 in 2.5 mi Calm Calm - N/A   Partly Cloudy
9:16 AM 21.2 °F - 19.4 °F 93% 30.29 in 3.0 mi Calm Calm - N/A   Clear
9:36 AM 21.2 °F - 17.6 °F 86% 30.29 in 0.2 mi Calm Calm - N/A   Unknown
9:56 AM 21.2 °F - 19.4 °F 93% 30.30 in 0.2 mi Calm Calm - N/A   Unknown
10:16 AM 21.2 °F - 21.2 °F 100% 30.30 in 0.2 mi Calm Calm - N/A   Unknown
10:36 AM 24.8 °F - 23.0 °F 93% 30.30 in 10.0 mi Calm Calm - N/A   Clear
10:56 AM 24.8 °F - 24.8 °F 100% 30.31 in 10.0 mi Calm Calm - N/A   Clear
11:16 AM 26.6 °F - 24.8 °F 93% 30.31 in 10.0 mi Calm Calm - N/A   Clear
11:36 AM 26.6 °F - 24.8 °F 93% 30.30 in 10.0 mi Calm Calm - N/A   Clear
11:56 AM 26.6 °F 21.2 °F 23.0 °F 86% 30.30 in 10.0 mi ESE 4.6 mph - N/A   Clear
12:16 PM 28.4 °F - 21.2 °F 74% 30.31 in 10.0 mi Calm Calm - N/A   Clear
12:36 PM 30.2 °F - 21.2 °F 69% 30.31 in 10.0 mi Calm Calm - N/A   Clear
12:56 PM 32.0 °F 28.7 °F 21.2 °F 64% 30.31 in 10.0 mi East 3.5 mph - N/A   Clear
1:16 PM 32.0 °F 27.5 °F 21.2 °F 64% 30.30 in 10.0 mi NE 4.6 mph - N/A   Clear
1:36 PM 32.0 °F - 21.2 °F 64% 30.30 in 10.0 mi Calm Calm - N/A   Clear
1:56 PM 33.8 °F 30.8 °F 21.2 °F 60% 30.30 in 10.0 mi East 3.5 mph - N/A   Clear
2:16 PM 33.8 °F 27.7 °F 19.4 °F 56% 30.29 in 10.0 mi NE 6.9 mph - N/A   Clear
2:36 PM 33.8 °F 28.6 °F 21.2 °F 60% 30.29 in 10.0 mi ENE 5.8 mph - N/A   Clear
2:56 PM 35.6 °F 31.7 °F 21.2 °F 56% 30.29 in 10.0 mi East 4.6 mph - N/A   Clear
3:16 PM 35.6 °F 30.7 °F 21.2 °F 56% 30.28 in 10.0 mi ENE 5.8 mph - N/A   Clear
3:36 PM 35.6 °F 31.7 °F 17.6 °F 48% 30.28 in 10.0 mi NNE 4.6 mph - N/A   Clear
3:56 PM 35.6 °F 30.7 °F 19.4 °F 52% 30.28 in 10.0 mi North 5.8 mph - N/A   Clear
4:16 PM 35.6 °F 30.7 °F 17.6 °F 48% 30.27 in 10.0 mi NE 5.8 mph - N/A   Clear
4:36 PM 37.4 °F 30.8 °F 17.6 °F 45% 30.27 in 10.0 mi NE 9.2 mph - N/A   Clear
4:56 PM 37.4 °F 30.8 °F 15.8 °F 41% 30.26 in 10.0 mi NNE 9.2 mph - N/A   Clear
5:16 PM 37.4 °F 31.4 °F 15.8 °F 41% 30.26 in 10.0 mi North 8.1 mph 19.6 mph N/A   Clear
5:36 PM 37.4 °F 30.8 °F 15.8 °F 41% 30.27 in 10.0 mi NNE 9.2 mph 18.4 mph N/A   Clear
5:56 PM 37.4 °F 29.8 °F 15.8 °F 41% 30.26 in 10.0 mi North 11.5 mph 18.4 mph N/A   Clear
6:16 PM 37.4 °F 30.8 °F 15.8 °F 41% 30.26 in 10.0 mi NNE 9.2 mph - N/A   Clear
6:36 PM 35.6 °F 31.7 °F 15.8 °F 44% 30.26 in 10.0 mi North 4.6 mph - N/A   Clear
6:56 PM 35.6 °F 29.2 °F 15.8 °F 44% 30.25 in 10.0 mi NNW 8.1 mph - N/A   Clear
7:16 PM 35.6 °F 29.9 °F 15.8 °F 44% 30.24 in 10.0 mi North 6.9 mph - N/A   Clear
7:36 PM 35.6 °F 31.7 °F 15.8 °F 44% 30.24 in 10.0 mi North 4.6 mph - N/A   Clear
7:56 PM 33.8 °F 29.6 °F 14.0 °F 44% 30.24 in 10.0 mi NNW 4.6 mph - N/A   Clear
8:16 PM 33.8 °F - 15.8 °F 48% 30.24 in 10.0 mi Calm Calm - N/A   Clear
8:36 PM 28.4 °F 24.6 °F 14.0 °F 55% 30.24 in 10.0 mi WNW 3.5 mph - N/A   Clear
8:56 PM 28.4 °F - 15.8 °F 59% 30.24 in 10.0 mi Calm Calm - N/A   Clear
9:16 PM 28.4 °F - 14.0 °F 55% 30.23 in 10.0 mi Calm Calm - N/A   Clear
9:36 PM 30.2 °F 26.7 °F 15.8 °F 55% 30.23 in 10.0 mi North 3.5 mph - N/A   Clear
10:16 PM 30.2 °F 26.7 °F 14.0 °F 51% 30.23 in 10.0 mi North 3.5 mph - N/A   Clear
10:36 PM 30.2 °F 24.3 °F 15.8 °F 55% 30.24 in 10.0 mi NNE 5.8 mph - N/A   Clear
10:56 PM 30.2 °F 25.4 °F 14.0 °F 51% 30.24 in 10.0 mi NNW 4.6 mph - N/A   Clear
11:16 PM 30.2 °F 24.3 °F 15.8 °F 55% 30.24 in 10.0 mi North 5.8 mph - N/A   Clear
11:36 PM 30.2 °F 24.3 °F 14.0 °F 51% 30.23 in 10.0 mi NNE 5.8 mph - N/A   Clear
11:56 PM 30.2 °F 24.3 °F 12.2 °F 47% 30.23 in 10.0 mi North 5.8 mph - N/A   Clear